O'Neill, NE

8:36 PM CST on November 21, 2017 (GMT -0600)
The O'Neill Municipal-Baker

Weather History for KONL - December, 2012

Change the Weather History Date:

Monday, December 31, 2012

  Actual Average Record
Temperature  
Mean Temperature 18 °F -  
Max Temperature 21 °F 27 °F 59 °F (1999)
Min Temperature 14 °F 6 °F -31 °F (1967)
Degree Days  
Heating Degree Days 48    
Moisture  
Dew Point 17 °F    
Average Humidity 90    
Maximum Humidity 94    
Minimum Humidity 85    
Precipitation  
Precipitation 0.00 in - - ()
Sea Level Pressure  
Sea Level Pressure 30.15 in    
Wind  
Wind Speed 6 mph (NNW)    
Max Wind Speed 14 mph    
Max Gust Speed -    
Visibility 8 miles    
Events Snow    
Averages and records for this station are not official NWS values.
T = Trace of Precipitation, MM = Missing Value Source: NWS Daily Summary

Daily Weather History Graph

Daily Weather History Graph

Search for Another Location

Airport or City:

Trip Planner

Search our weather history database for the weather conditions in past years. The results will help you decide how hot, cold, wet, or windy it might be!

Date:

Astronomy

Dec. 31, 2012 Rise Set
Actual Time 8:04 AM CST 5:11 PM CST
Civil Twilight 7:32 AM CST 5:43 PM CST
Nautical Twilight 6:57 AM CST 6:19 PM CST
Astronomical Twilight 6:22 AM CST 6:53 PM CST
Moon 8:48 PM CST (12/31) 9:42 AM CST (12/31)
Length of Visible Light 10h 11m
Length of Day
9h 07m
Waning Gibbous, 90% of the Moon is Illuminated
Dec 31
Waning Gibbous
Jan 4
Last Quarter
Jan 11
New
Jan 18
First Quarter
Jan 26
Full

Hourly Weather History & Observations

Time (CST) Temp. Windchill Dew Point Humidity Pressure Visibility Wind Dir Wind Speed Gust Speed Precip Events Conditions
12:15 AM 18.5 °F 8.4 °F 15.8 °F 89% 30.12 in 10.0 mi NW 8.1 mph - N/A   Clear
12:35 AM 17.6 °F 6.4 °F 15.1 °F 90% 30.11 in 10.0 mi NW 9.2 mph - N/A   Clear
12:55 AM 17.1 °F 8.7 °F 14.5 °F 90% 30.11 in 10.0 mi NNW 5.8 mph - N/A   Clear
1:15 AM 16.2 °F 6.5 °F 14.0 °F 91% 30.12 in 10.0 mi NW 6.9 mph - N/A   Clear
1:35 AM 15.8 °F 5.1 °F 14.0 °F 93% 30.13 in 10.0 mi NW 8.1 mph - N/A   Clear
1:55 AM 16.2 °F 4.7 °F 14.0 °F 91% 30.12 in 10.0 mi NW 9.2 mph - N/A   Clear
2:15 AM 15.6 °F 4.9 °F 13.6 °F 92% 30.13 in 10.0 mi NW 8.1 mph - N/A   Clear
2:35 AM 14.9 °F 6.1 °F 13.1 °F 93% 30.13 in 10.0 mi NW 5.8 mph - N/A   Scattered Clouds
2:55 AM 14.7 °F - 12.9 °F 93% 30.14 in 10.0 mi Calm Calm - N/A   Mostly Cloudy
3:15 AM 17.2 °F 11.9 °F 15.4 °F 93% 30.14 in 10.0 mi NW 3.5 mph - N/A   Overcast
3:35 AM 17.6 °F 12.3 °F 15.8 °F 93% 30.15 in 10.0 mi NW 3.5 mph - N/A   Overcast
3:55 AM 18.5 °F 9.3 °F 16.5 °F 92% 30.14 in 10.0 mi NNW 6.9 mph - N/A   Overcast
4:15 AM 18.9 °F 7.2 °F 17.1 °F 93% 30.14 in 10.0 mi NNW 10.4 mph - N/A   Overcast
4:35 AM 19.4 °F 6.0 °F 17.6 °F 93% 30.14 in 7.0 mi North 13.8 mph - N/A   Overcast
4:55 AM 19.0 °F 5.6 °F 17.6 °F 94% 30.14 in 2.0 mi North 13.8 mph - N/A   Overcast
5:15 AM 18.5 °F 4.9 °F 17.1 °F 94% 30.12 in 1.5 mi North 13.8 mph - N/A   Overcast
5:35 AM 18.3 °F 6.6 °F 16.7 °F 93% 30.13 in 1.0 mi North 10.4 mph - N/A   Overcast
5:55 AM 18.1 °F 7.9 °F 16.5 °F 93% 30.14 in 0.8 mi North 8.1 mph - N/A   Overcast
6:15 AM 18.1 °F 10.0 °F 16.3 °F 93% 30.15 in 0.8 mi North 5.8 mph - N/A   Overcast
6:35 AM 17.6 °F 8.2 °F 15.8 °F 93% 30.15 in 0.8 mi NNE 6.9 mph - N/A   Overcast
6:55 AM 18.0 °F 9.8 °F 16.2 °F 93% 30.16 in 0.8 mi North 5.8 mph - N/A   Overcast
7:15 AM 18.0 °F 9.8 °F 16.2 °F 93% 30.16 in 0.8 mi North 5.8 mph - N/A   Overcast
7:35 AM 18.1 °F 10.0 °F 16.3 °F 93% 30.17 in 1.0 mi North 5.8 mph - N/A   Overcast
7:55 AM 18.1 °F 11.3 °F 16.3 °F 93% 30.16 in 1.0 mi North 4.6 mph - N/A   Overcast
8:15 AM 18.3 °F 10.2 °F 16.5 °F 93% 30.16 in 0.8 mi NNE 5.8 mph - N/A   Overcast
8:35 AM 18.3 °F 9.1 °F 16.3 °F 92% 30.16 in 0.8 mi NNE 6.9 mph - N/A   Overcast
8:55 AM 18.3 °F 9.1 °F 16.3 °F 92% 30.15 in 1.0 mi North 6.9 mph - N/A   Overcast
9:15 AM 18.5 °F 8.4 °F 16.5 °F 92% 30.15 in 2.5 mi North 8.1 mph - N/A   Overcast
9:35 AM 18.5 °F 8.4 °F 16.7 °F 93% 30.16 in 4.0 mi North 8.1 mph - N/A   Overcast
9:55 AM 18.9 °F 12.1 °F 16.9 °F 92% 30.17 in 4.0 mi North 4.6 mph - N/A   Overcast
10:15 AM 19.0 °F 12.3 °F 17.1 °F 92% 30.17 in 5.0 mi North 4.6 mph - N/A   Overcast
10:35 AM 19.4 °F 12.8 °F 17.4 °F 92% 30.17 in 5.0 mi North 4.6 mph - N/A   Overcast
10:55 AM 19.4 °F 12.8 °F 17.6 °F 93% 30.18 in 5.0 mi North 4.6 mph - N/A   Overcast
11:15 AM 19.8 °F - 18.0 °F 93% 30.17 in 7.0 mi Calm Calm - N/A   Overcast
11:35 AM 20.1 °F - 18.3 °F 93% 30.17 in 7.0 mi Calm Calm - N/A   Overcast
11:55 AM 20.3 °F - 18.5 °F 93% 30.17 in 10.0 mi Calm Calm - N/A   Overcast
12:15 PM 20.3 °F 13.8 °F 18.5 °F 93% 30.17 in 10.0 mi ENE 4.6 mph - N/A   Overcast
12:35 PM 20.3 °F - 18.3 °F 92% 30.16 in 10.0 mi Calm Calm - N/A   Overcast
12:55 PM 20.3 °F - 18.3 °F 92% 30.15 in 10.0 mi Calm Calm - N/A   Overcast
1:15 PM 20.3 °F - 18.3 °F 92% 30.14 in 10.0 mi Calm Calm - N/A   Overcast
1:35 PM 20.5 °F 15.6 °F 18.3 °F 91% 30.14 in 7.0 mi NE 3.5 mph - N/A Snow Light Snow
1:55 PM 20.7 °F 15.8 °F 18.1 °F 90% 30.14 in 10.0 mi NNE 3.5 mph - N/A   Overcast
2:15 PM 20.8 °F - 17.8 °F 88% 30.14 in 10.0 mi Calm Calm - N/A   Overcast
2:35 PM 21.0 °F 14.6 °F 17.8 °F 87% 30.13 in 10.0 mi NE 4.6 mph - N/A   Overcast
2:55 PM 21.0 °F - 17.4 °F 86% 30.13 in 10.0 mi Calm Calm - N/A   Overcast
3:15 PM 21.2 °F 16.4 °F 17.4 °F 85% 30.13 in 10.0 mi NNW 3.5 mph - N/A   Overcast
3:35 PM 21.0 °F - 17.2 °F 85% 30.13 in 10.0 mi Calm Calm - N/A   Overcast
3:55 PM 21.0 °F - 17.4 °F 86% 30.13 in 10.0 mi Calm Calm - N/A   Overcast
4:15 PM 20.7 °F - 17.2 °F 87% 30.14 in 10.0 mi Calm Calm - N/A   Overcast
4:35 PM 20.7 °F - 17.2 °F 87% 30.14 in 10.0 mi Calm Calm - N/A Snow Light Snow
4:55 PM 20.7 °F 15.8 °F 17.4 °F 87% 30.14 in 10.0 mi NNW 3.5 mph - N/A Snow Light Snow
5:15 PM 20.7 °F - 17.2 °F 87% 30.14 in 10.0 mi Calm Calm - N/A   Overcast
5:35 PM 20.7 °F - 17.2 °F 87% 30.15 in 10.0 mi Calm Calm - N/A   Overcast
5:55 PM 20.7 °F - 16.7 °F 85% 30.15 in 10.0 mi Calm Calm - N/A   Overcast
6:15 PM 20.7 °F - 17.1 °F 86% 30.15 in 10.0 mi Calm Calm - N/A   Overcast
6:35 PM 20.7 °F - 16.9 °F 85% 30.16 in 10.0 mi Calm Calm - N/A   Overcast
6:55 PM 20.7 °F - 17.2 °F 87% 30.16 in 10.0 mi Calm Calm - N/A   Overcast
7:15 PM 20.3 °F - 16.7 °F 86% 30.17 in 10.0 mi Calm Calm - N/A   Overcast
7:35 PM 20.3 °F - 16.7 °F 86% 30.17 in 10.0 mi Calm Calm - N/A   Overcast
7:55 PM 20.3 °F - 16.7 °F 86% 30.17 in 10.0 mi Calm Calm - N/A   Overcast
8:15 PM 21.2 °F 14.9 °F 17.6 °F 86% 30.17 in 10.0 mi West 4.6 mph - N/A   Overcast
8:35 PM 20.3 °F 15.4 °F 16.7 °F 86% 30.16 in 10.0 mi WSW 3.5 mph - N/A   Overcast
8:55 PM 19.4 °F 12.8 °F 17.6 °F 93% 30.17 in 10.0 mi West 4.6 mph - N/A   Overcast
9:15 PM 20.1 °F 13.6 °F 16.7 °F 87% 30.16 in 10.0 mi WSW 4.6 mph - N/A   Overcast
9:35 PM 19.9 °F 14.9 °F 16.7 °F 87% 30.16 in 10.0 mi West 3.5 mph - N/A   Overcast
9:55 PM 19.9 °F 12.1 °F 16.9 °F 88% 30.17 in 10.0 mi WSW 5.8 mph - N/A   Overcast
10:15 PM 19.8 °F 11.9 °F 17.1 °F 89% 30.17 in 10.0 mi WSW 5.8 mph - N/A   Overcast
10:35 PM 19.4 °F 10.4 °F 16.7 °F 89% 30.17 in 10.0 mi SW 6.9 mph - N/A   Overcast
10:55 PM 19.4 °F 11.5 °F 17.6 °F 93% 30.17 in 10.0 mi SW 5.8 mph - N/A   Overcast
11:15 PM 19.8 °F 14.7 °F 17.2 °F 90% 30.18 in 10.0 mi SW 3.5 mph - N/A   Overcast
11:35 PM 19.4 °F 11.5 °F 17.2 °F 91% 30.18 in 10.0 mi SW 5.8 mph - N/A   Overcast
11:55 PM 19.4 °F 14.3 °F 17.6 °F 93% 30.19 in 10.0 mi SSW 3.5 mph - N/A   Overcast